| time (UTC) | temp F | wind direction | speed MPH | gust MPH | rain 1hr in | rain 24hr in | rain mn in | humidity % | barometer mb |
| 20260904154733 | 83 | 293 | 3.0 | 3.0 | 0.00 | 0.00 | 0.00 | 61 | 1016.2 |
| 20260904154228 | 83 | 154 | 3.0 | 3.0 | 0.00 | 0.00 | 0.00 | 60 | 1016.2 |
| 20260904153724 | 82 | 194 | 2.0 | 2.0 | 0.00 | 0.00 | 0.00 | 62 | 1016.2 |
| 20260904153219 | 82 | 251 | 5.0 | 6.0 | 0.00 | 0.00 | 0.00 | 64 | 1016.2 |
| 20260904152715 | 82 | 230 | 4.0 | 6.0 | 0.00 | 0.00 | 0.00 | 64 | 1016.2 |
| 20260904152210 | 81 | 200 | 5.0 | 6.0 | 0.00 | 0.00 | 0.00 | 65 | 1016.3 |
| 20260904151705 | 80 | 206 | 4.0 | 5.0 | 0.00 | 0.00 | 0.00 | 65 | 1016.2 |
| 20260904151204 | 81 | 225 | 5.0 | 6.0 | 0.00 | 0.00 | 0.00 | 65 | 1016.1 |
| 20260904150700 | 80 | 244 | 4.0 | 5.0 | 0.00 | 0.00 | 0.00 | 66 | 1016.2 |
| 20260904150155 | 80 | 226 | 3.0 | 3.0 | 0.00 | 0.00 | 0.00 | 67 | 1016.2 |
| 20260904145653 | 80 | 262 | 2.0 | 2.0 | 0.00 | 0.00 | 0.00 | 67 | 1016.1 |
| 20260904145149 | 79 | 230 | 4.0 | 5.0 | 0.00 | 0.00 | 0.00 | 68 | 1016.0 |
| 20260904144644 | 79 | 249 | 3.0 | 3.0 | 0.00 | 0.00 | 0.00 | 68 | 1016.1 |
| 20260904144140 | 79 | 274 | 3.0 | 3.0 | 0.00 | 0.00 | 0.00 | 68 | 1016.0 |
| 20260904143636 | 79 | 229 | 2.0 | 2.0 | 0.00 | 0.00 | 0.00 | 69 | 1016.1 |
| 20260904143132 | 79 | 213 | 2.0 | 2.0 | 0.00 | 0.00 | 0.00 | 69 | 1016.1 |
| 20260904142628 | 79 | 210 | 2.0 | 2.0 | 0.00 | 0.00 | 0.00 | 68 | 1016.2 |
| 20260904142124 | 78 | 216 | 1.0 | 1.0 | 0.00 | 0.00 | 0.00 | 69 | 1016.0 |
| 20260904141619 | 78 | 210 | 2.0 | 2.0 | 0.00 | 0.00 | 0.00 | 69 | 1015.9 |
| 20260904141114 | 78 | 206 | 3.0 | 3.0 | 0.00 | 0.00 | 0.00 | 70 | 1016.0 |
| 20260904140610 | 78 | 201 | 2.0 | 3.0 | 0.00 | 0.00 | 0.00 | 70 | 1015.7 |
| 20260904140104 | 77 | 190 | 0.0 | 0.0 | 0.00 | 0.00 | 0.00 | 71 | 1015.8 |
| 20260904135603 | 77 | 196 | 3.0 | 3.0 | 0.00 | 0.00 | 0.00 | 72 | 1015.7 |
| 20260904135059 | 77 | 185 | 0.0 | 1.0 | 0.00 | 0.00 | 0.00 | 72 | 1015.7 |
| 20260904134555 | 76 | 161 | 1.0 | 1.0 | 0.00 | 0.00 | 0.00 | 73 | 1015.5 |
| 20260904134048 | 76 | 193 | 4.0 | 5.0 | 0.00 | 0.00 | 0.00 | 73 | 1015.3 |
| 20260904133543 | 75 | 176 | 1.0 | 1.0 | 0.00 | 0.00 | 0.00 | 74 | 1015.5 |
| 20260904133040 | 75 | 187 | 2.0 | 3.0 | 0.00 | 0.00 | 0.00 | 75 | 1015.3 |
| 20260904132539 | 74 | 208 | 4.0 | 5.0 | 0.00 | 0.00 | 0.00 | 76 | 1015.1 |
| 20260904132039 | 74 | 198 | 2.0 | 2.0 | 0.00 | 0.00 | 0.00 | 77 | 1015.0 |
| 20260904131539 | 74 | 194 | 0.0 | 0.0 | 0.00 | 0.00 | 0.00 | 78 | 1015.0 |
| 20260904131035 | 74 | 179 | 0.0 | 0.0 | 0.00 | 0.00 | 0.00 | 78 | 1014.9 |
| 20260904130534 | 74 | 198 | 1.0 | 1.0 | 0.00 | 0.00 | 0.00 | 78 | 1015.0 |
| 20260904130029 | 74 | 198 | 1.0 | 1.0 | 0.00 | 0.00 | 0.00 | 79 | 1014.8 |
| 20260904125526 | 74 | 197 | 0.0 | 1.0 | 0.00 | 0.00 | 0.00 | 78 | 1014.6 |
| 20260904125020 | 74 | 204 | 0.0 | 0.0 | 0.00 | 0.00 | 0.00 | 78 | 1014.7 |
| 20260904124516 | 74 | 204 | 3.0 | 3.0 | 0.00 | 0.00 | 0.00 | 78 | 1014.7 |
| 20260904124012 | 74 | 185 | 3.0 | 3.0 | 0.00 | 0.00 | 0.00 | 77 | 1014.7 |
| 20260904123511 | 74 | 206 | 0.0 | 0.0 | 0.00 | 0.00 | 0.00 | 77 | 1014.7 |
| 20260904123007 | 74 | 190 | 0.0 | 1.0 | 0.00 | 0.00 | 0.00 | 77 | 1014.4 |
| 20260904122501 | 75 | 197 | 3.0 | 3.0 | 0.00 | 0.00 | 0.00 | 77 | 1014.3 |
| 20260904121955 | 74 | 206 | 1.0 | 2.0 | 0.00 | 0.00 | 0.00 | 77 | 1014.4 |
| 20260904121452 | 74 | 198 | 0.0 | 0.0 | 0.00 | 0.00 | 0.00 | 77 | 1014.2 |
| 20260904120948 | 74 | 194 | 0.0 | 0.0 | 0.00 | 0.00 | 0.00 | 77 | 1014.6 |
| 20260904120444 | 74 | 194 | 1.0 | 1.0 | 0.00 | 0.00 | 0.00 | 77 | 1014.3 |
| 20260904115938 | 75 | 203 | 0.0 | 0.0 | 0.00 | 0.00 | 0.00 | 77 | 1014.1 |
| 20260904115433 | 75 | 184 | 2.0 | 2.0 | 0.00 | 0.00 | 0.00 | 76 | 1014.3 |
| 20260904114928 | 75 | 211 | 1.0 | 1.0 | 0.00 | 0.00 | 0.00 | 77 | 1014.2 |
| 20260904114427 | 75 | 200 | 0.0 | 0.0 | 0.00 | 0.00 | 0.00 | 77 | 1014.0 |
| 20260904113924 | 75 | 199 | 1.0 | 1.0 | 0.00 | 0.00 | 0.00 | 77 | 1014.2 |
| 20260904113423 | 75 | 144 | 1.0 | 1.0 | 0.00 | 0.00 | 0.00 | 76 | 1014.3 |
| 20260904112922 | 75 | 181 | 0.0 | 0.0 | 0.00 | 0.00 | 0.00 | 76 | 1014.2 |
| 20260904112418 | 75 | 198 | 0.0 | 0.0 | 0.00 | 0.00 | 0.00 | 76 | 1014.1 |
| 20260904111914 | 75 | 207 | 1.0 | 2.0 | 0.00 | 0.00 | 0.00 | 76 | 1014.3 |
| 20260904111409 | 75 | 201 | 0.0 | 0.0 | 0.00 | 0.00 | 0.00 | 76 | 1014.4 |
| 20260904110905 | 75 | 202 | 1.0 | 1.0 | 0.00 | 0.00 | 0.00 | 76 | 1014.3 |
| 20260904110403 | 75 | 182 | 0.0 | 0.0 | 0.00 | 0.00 | 0.00 | 76 | 1014.4 |
| 20260904105859 | 75 | 188 | 0.0 | 0.0 | 0.00 | 0.00 | 0.00 | 76 | 1014.3 |
| 20260904105354 | 75 | 200 | 0.0 | 0.0 | 0.00 | 0.00 | 0.00 | 75 | 1014.2 |
| 20260904104849 | 75 | 204 | 0.0 | 0.0 | 0.00 | 0.00 | 0.00 | 75 | 1014.1 |
| 20260904104343 | 75 | 195 | 0.0 | 0.0 | 0.00 | 0.00 | 0.00 | 75 | 1014.2 |
| 20260904103841 | 76 | 193 | 0.0 | 0.0 | 0.00 | 0.00 | 0.00 | 75 | 1014.1 |
| 20260904103335 | 76 | 201 | 0.0 | 1.0 | 0.00 | 0.00 | 0.00 | 74 | 1014.2 |
| 20260904102831 | 76 | 204 | 1.0 | 1.0 | 0.00 | 0.00 | 0.00 | 75 | 1014.1 |
| 20260904102326 | 76 | 213 | 1.0 | 1.0 | 0.00 | 0.00 | 0.00 | 74 | 1014.0 |
| 20260904101822 | 76 | 199 | 0.0 | 0.0 | 0.00 | 0.00 | 0.00 | 73 | 1014.2 |
| 20260904101318 | 77 | 190 | 0.0 | 0.0 | 0.00 | 0.00 | 0.00 | 72 | 1014.2 |
| 20260904100814 | 77 | 188 | 0.0 | 0.0 | 0.00 | 0.00 | 0.00 | 72 | 1014.1 |
| 20260904100309 | 77 | 184 | 0.0 | 0.0 | 0.00 | 0.00 | 0.00 | 72 | 1014.0 |
| 20260904095804 | 77 | 180 | 0.0 | 0.0 | 0.00 | 0.00 | 0.00 | 72 | 1014.1 |
| 20260904095259 | 76 | 169 | 0.0 | 0.0 | 0.00 | 0.00 | 0.00 | 73 | 1014.0 |
| 20260904094754 | 76 | 181 | 0.0 | 0.0 | 0.00 | 0.00 | 0.00 | 73 | 1014.3 |
| 20260904094248 | 77 | 205 | 1.0 | 1.0 | 0.00 | 0.00 | 0.00 | 73 | 1014.2 |
| 20260904093745 | 77 | 174 | 0.0 | 0.0 | 0.00 | 0.00 | 0.00 | 72 | 1014.2 |
| 20260904093245 | 76 | 179 | 0.0 | 0.0 | 0.00 | 0.00 | 0.00 | 73 | 1014.1 |
| 20260904092741 | 76 | 196 | 0.0 | 0.0 | 0.00 | 0.00 | 0.00 | 73 | 1014.1 |
| 20260904092237 | 76 | 189 | 0.0 | 0.0 | 0.00 | 0.00 | 0.00 | 73 | 1014.2 |
| 20260904091733 | 76 | 201 | 0.0 | 0.0 | 0.00 | 0.00 | 0.00 | 73 | 1013.8 |
| 20260904091227 | 76 | 198 | 0.0 | 0.0 | 0.00 | 0.00 | 0.00 | 73 | 1013.7 |
| 20260904090723 | 77 | 199 | 1.0 | 1.0 | 0.00 | 0.00 | 0.00 | 73 | 1014.1 |
| 20260904090218 | 77 | 196 | 0.0 | 0.0 | 0.00 | 0.00 | 0.00 | 72 | 1014.0 |
| 20260904085713 | 77 | 190 | 0.0 | 0.0 | 0.00 | 0.00 | 0.00 | 72 | 1014.1 |
| 20260904085208 | 77 | 196 | 0.0 | 0.0 | 0.00 | 0.00 | 0.00 | 71 | 1014.1 |
| 20260904084703 | 77 | 197 | 0.0 | 0.0 | 0.00 | 0.00 | 0.00 | 71 | 1014.3 |
| 20260904084159 | 77 | 183 | 0.0 | 0.0 | 0.00 | 0.00 | 0.00 | 71 | 1014.1 |
| 20260904083655 | 77 | 169 | 0.0 | 0.0 | 0.00 | 0.00 | 0.00 | 71 | 1014.4 |
| 20260904083151 | 77 | 190 | 0.0 | 0.0 | 0.00 | 0.00 | 0.00 | 71 | 1014.1 |
| 20260904082646 | 77 | 187 | 0.0 | 0.0 | 0.00 | 0.00 | 0.00 | 71 | 1014.2 |
| 20260904082141 | 77 | 166 | 0.0 | 1.0 | 0.00 | 0.00 | 0.00 | 71 | 1014.2 |
| 20260904081636 | 77 | 196 | 0.0 | 0.0 | 0.00 | 0.00 | 0.00 | 70 | 1014.3 |
| 20260904081132 | 77 | 170 | 0.0 | 0.0 | 0.00 | 0.00 | 0.00 | 71 | 1014.4 |
| 20260904080627 | 77 | 198 | 0.0 | 0.0 | 0.00 | 0.00 | 0.00 | 70 | 1014.3 |
| 20260904080123 | 78 | 165 | 0.0 | 1.0 | 0.00 | 0.00 | 0.00 | 70 | 1014.5 |
| 20260904075620 | 78 | 138 | 1.0 | 1.0 | 0.00 | 0.00 | 0.00 | 70 | 1014.4 |
| 20260904075119 | 78 | 181 | 0.0 | 1.0 | 0.00 | 0.00 | 0.00 | 69 | 1014.4 |
| 20260904074618 | 78 | 181 | 1.0 | 1.0 | 0.00 | 0.00 | 0.00 | 69 | 1014.3 |
| 20260904074114 | 78 | 181 | 1.0 | 2.0 | 0.00 | 0.00 | 0.00 | 69 | 1014.3 |
| 20260904073608 | 78 | 199 | 1.0 | 2.0 | 0.00 | 0.00 | 0.00 | 69 | 1014.2 |
| 20260904073105 | 78 | 180 | 0.0 | 0.0 | 0.00 | 0.00 | 0.00 | 69 | 1014.3 |
| 20260904072600 | 78 | 219 | 0.0 | 0.0 | 0.00 | 0.00 | 0.00 | 69 | 1014.2 |
| 20260904072055 | 78 | 203 | 0.0 | 0.0 | 0.00 | 0.00 | 0.00 | 68 | 1014.3 |
| 20260904071551 | 79 | 117 | 1.0 | 1.0 | 0.00 | 0.00 | 0.00 | 68 | 1014.2 |
| 20260904071046 | 79 | 215 | 1.0 | 1.0 | 0.00 | 0.00 | 0.00 | 68 | 1014.4 |
| 20260904070544 | 78 | 205 | 0.0 | 0.0 | 0.00 | 0.00 | 0.00 | 68 | 1014.2 |
| 20260904070040 | 79 | 196 | 1.0 | 1.0 | 0.00 | 0.00 | 0.00 | 68 | 1014.3 |
| 20260904065534 | 79 | 222 | 2.0 | 2.0 | 0.00 | 0.00 | 0.00 | 67 | 1014.4 |
| 20260904065031 | 79 | 197 | 0.0 | 0.0 | 0.00 | 0.00 | 0.00 | 67 | 1014.4 |
| 20260904064527 | 79 | 208 | 0.0 | 1.0 | 0.00 | 0.00 | 0.00 | 66 | 1014.2 |
| 20260904064027 | 79 | 137 | 2.0 | 3.0 | 0.00 | 0.00 | 0.00 | 68 | 1014.0 |
| 20260904063523 | 78 | 149 | 1.0 | 2.0 | 0.00 | 0.00 | 0.00 | 68 | 1014.2 |
| 20260904063018 | 79 | 194 | 0.0 | 0.0 | 0.00 | 0.00 | 0.00 | 68 | 1014.2 |
| 20260904062514 | 79 | 171 | 0.0 | 1.0 | 0.00 | 0.00 | 0.00 | 68 | 1014.3 |
| 20260904062009 | 79 | 197 | 2.0 | 2.0 | 0.00 | 0.00 | 0.00 | 67 | 1014.3 |
| 20260904061505 | 79 | 201 | 1.0 | 1.0 | 0.00 | 0.00 | 0.00 | 67 | 1014.2 |
| 20260904061001 | 80 | 199 | 0.0 | 1.0 | 0.00 | 0.00 | 0.00 | 66 | 1014.3 |
| 20260904060457 | 80 | 218 | 1.0 | 1.0 | 0.00 | 0.00 | 0.00 | 66 | 1014.1 |
| 20260904055953 | 80 | 206 | 0.0 | 1.0 | 0.00 | 0.00 | 0.00 | 65 | 1014.3 |
| 20260904055448 | 80 | 202 | 2.0 | 2.0 | 0.00 | 0.00 | 0.00 | 65 | 1014.5 |
| 20260904054943 | 80 | 216 | 2.0 | 2.0 | 0.00 | 0.00 | 0.00 | 64 | 1014.2 |
| 20260904054439 | 80 | 163 | 0.0 | 0.0 | 0.00 | 0.00 | 0.00 | 64 | 1014.2 |
| 20260904053935 | 81 | 198 | 2.0 | 2.0 | 0.00 | 0.00 | 0.00 | 63 | 1014.2 |
| 20260904053434 | 81 | 223 | 2.0 | 2.0 | 0.00 | 0.00 | 0.00 | 63 | 1014.1 |
| 20260904052930 | 81 | 243 | 5.0 | 6.0 | 0.00 | 0.00 | 0.00 | 62 | 1014.0 |
| 20260904052426 | 82 | 225 | 4.0 | 5.0 | 0.00 | 0.00 | 0.00 | 62 | 1013.8 |
| 20260904051922 | 82 | 231 | 4.0 | 5.0 | 0.00 | 0.00 | 0.00 | 62 | 1014.1 |
| 20260904051418 | 82 | 223 | 2.0 | 2.0 | 0.00 | 0.00 | 0.00 | 62 | 1014.1 |
| 20260904050912 | 82 | 240 | 3.0 | 3.0 | 0.00 | 0.00 | 0.00 | 61 | 1014.1 |
| 20260904050409 | 82 | 251 | 2.0 | 2.0 | 0.00 | 0.00 | 0.00 | 61 | 1014.4 |
| 20260904045908 | 82 | 213 | 2.0 | 2.0 | 0.00 | 0.00 | 0.00 | 61 | 1014.2 |
| 20260904045404 | 82 | 225 | 1.0 | 2.0 | 0.00 | 0.00 | 0.00 | 61 | 1014.5 |
| 20260904044903 | 82 | 216 | 3.0 | 3.0 | 0.00 | 0.00 | 0.00 | 60 | 1014.4 |
| 20260904044400 | 82 | 210 | 3.0 | 3.0 | 0.00 | 0.00 | 0.00 | 60 | 1014.4 |
| 20260904043856 | 82 | 210 | 2.0 | 3.0 | 0.00 | 0.00 | 0.00 | 60 | 1014.3 |
| 20260904043352 | 81 | 69 | 0.0 | 1.0 | 0.00 | 0.00 | 0.00 | 62 | 1014.5 |
| 20260904042847 | 81 | 171 | 1.0 | 2.0 | 0.00 | 0.00 | 0.00 | 62 | 1014.3 |
| 20260904042343 | 81 | 189 | 0.0 | 0.0 | 0.00 | 0.00 | 0.00 | 62 | 1014.4 |
| 20260904041838 | 81 | 139 | 4.0 | 5.0 | 0.00 | 0.00 | 0.00 | 62 | 1014.5 |
| 20260904041334 | 81 | 150 | 1.0 | 2.0 | 0.00 | 0.00 | 0.00 | 62 | 1014.4 |
| 20260904040830 | 81 | 78 | 3.0 | 3.0 | 0.00 | 0.00 | 0.00 | 62 | 1014.3 |
| 20260904040325 | 81 | 145 | 2.0 | 3.0 | 0.00 | 0.00 | 0.00 | 62 | 1014.1 |
| 20260904035821 | 82 | 62 | 3.0 | 5.0 | 0.00 | 0.00 | 0.00 | 62 | 1014.3 |
| 20260904035317 | 82 | 102 | 4.0 | 5.0 | 0.00 | 0.00 | 0.00 | 61 | 1014.2 |
| 20260904034815 | 82 | 154 | 2.0 | 3.0 | 0.00 | 0.00 | 0.00 | 61 | 1014.4 |
| 20260904034311 | 82 | 135 | 4.0 | 5.0 | 0.00 | 0.00 | 0.00 | 61 | 1014.1 |
| 20260904033807 | 82 | 83 | 3.0 | 3.0 | 0.00 | 0.00 | 0.00 | 61 | 1014.5 |
| 20260904033303 | 82 | 133 | 2.0 | 3.0 | 0.00 | 0.00 | 0.00 | 61 | 1014.1 |
| 20260904032759 | 83 | 115 | 7.0 | 9.0 | 0.00 | 0.00 | 0.00 | 60 | 1014.1 |
| 20260904032259 | 83 | 180 | 1.0 | 1.0 | 0.00 | 0.00 | 0.00 | 58 | 1014.2 |
| 20260904031753 | 83 | 117 | 3.0 | 3.0 | 0.00 | 0.00 | 0.00 | 58 | 1014.0 |
| 20260904031248 | 83 | 152 | 2.0 | 2.0 | 0.00 | 0.00 | 0.00 | 59 | 1013.7 |
| 20260904030744 | 83 | 156 | 1.0 | 1.0 | 0.00 | 0.00 | 0.00 | 60 | 1013.8 |
| 20260904030239 | 83 | 210 | 1.0 | 1.0 | 0.00 | 0.00 | 0.00 | 60 | 1013.6 |
| 20260904025736 | 82 | 170 | 1.0 | 1.0 | 0.00 | 0.00 | 0.00 | 60 | 1013.6 |
| 20260904025230 | 83 | 169 | 0.0 | 1.0 | 0.00 | 0.00 | 0.00 | 60 | 1013.3 |
| 20260904024721 | 83 | 186 | 3.0 | 5.0 | 0.00 | 0.00 | 0.00 | 60 | 1013.4 |
| 20260904024215 | 83 | 261 | 2.0 | 3.0 | 0.00 | 0.00 | 0.00 | 59 | 1013.0 |
| 20260904023711 | 83 | 210 | 3.0 | 5.0 | 0.00 | 0.00 | 0.00 | 59 | 1013.0 |
| 20260904023207 | 83 | 178 | 5.0 | 7.0 | 0.00 | 0.00 | 0.00 | 58 | 1013.3 |
| 20260904022701 | 83 | 161 | 3.0 | 3.0 | 0.00 | 0.00 | 0.00 | 58 | 1013.2 |
| 20260904022158 | 83 | 187 | 0.0 | 1.0 | 0.00 | 0.00 | 0.00 | 58 | 1013.0 |
| 20260904021654 | 83 | 187 | 1.0 | 1.0 | 0.00 | 0.00 | 0.00 | 58 | 1013.2 |
| 20260904021148 | 83 | 192 | 3.0 | 5.0 | 0.00 | 0.00 | 0.00 | 57 | 1012.9 |
| 20260904020645 | 83 | 185 | 5.0 | 6.0 | 0.00 | 0.00 | 0.00 | 57 | 1012.7 |
| 20260904020139 | 83 | 221 | 5.0 | 5.0 | 0.00 | 0.00 | 0.00 | 58 | 1012.5 |
| 20260904015638 | 83 | 233 | 10.0 | 13.0 | 0.00 | 0.00 | 0.00 | 58 | 1012.9 |
| 20260904015137 | 83 | 198 | 7.0 | 7.0 | 0.00 | 0.00 | 0.00 | 59 | 1012.5 |
| 20260904014636 | 83 | 211 | 9.0 | 10.0 | 0.00 | 0.00 | 0.00 | 59 | 1012.4 |
| 20260904014131 | 83 | 243 | 11.0 | 11.0 | 0.00 | 0.00 | 0.00 | 59 | 1012.5 |
| 20260904013629 | 84 | 244 | 7.0 | 8.0 | 0.00 | 0.00 | 0.00 | 58 | 1012.2 |
| 20260904013124 | 84 | 213 | 7.0 | 8.0 | 0.00 | 0.00 | 0.00 | 58 | 1012.5 |
| 20260904012620 | 84 | 218 | 9.0 | 11.0 | 0.00 | 0.00 | 0.00 | 57 | 1012.3 |
| 20260904012119 | 84 | 236 | 11.0 | 11.0 | 0.00 | 0.00 | 0.00 | 58 | 1012.0 |
| 20260904011618 | 84 | 197 | 7.0 | 9.0 | 0.00 | 0.00 | 0.00 | 59 | 1012.2 |
| 20260904011114 | 84 | 216 | 14.0 | 16.0 | 0.00 | 0.00 | 0.00 | 58 | 1012.3 |
| 20260904010609 | 84 | 201 | 10.0 | 11.0 | 0.00 | 0.00 | 0.00 | 59 | 1012.0 |
| 20260904010106 | 84 | 204 | 12.0 | 13.0 | 0.00 | 0.00 | 0.00 | 59 | 1012.1 |
| 20260904005600 | 85 | 219 | 13.0 | 14.0 | 0.00 | 0.00 | 0.00 | 58 | 1012.2 |
| 20260904005055 | 86 | 213 | 9.0 | 10.0 | 0.00 | 0.00 | 0.00 | 55 | 1012.4 |
| 20260904004551 | 86 | 218 | 11.0 | 13.0 | 0.00 | 0.00 | 0.00 | 53 | 1012.2 |
| 20260904004046 | 86 | 234 | 11.0 | 13.0 | 0.00 | 0.00 | 0.00 | 54 | 1012.4 |
| 20260904003542 | 86 | 228 | 10.0 | 11.0 | 0.00 | 0.00 | 0.00 | 55 | 1012.2 |
| 20260904003037 | 86 | 205 | 14.0 | 15.0 | 0.00 | 0.00 | 0.00 | 56 | 1012.0 |
| 20260904002533 | 87 | 217 | 8.0 | 10.0 | 0.00 | 0.00 | 0.00 | 53 | 1012.2 |
| 20260904002032 | 88 | 237 | 9.0 | 11.0 | 0.00 | 0.00 | 0.00 | 51 | 1012.1 |
| 20260904001528 | 88 | 211 | 9.0 | 9.0 | 0.00 | 0.00 | 0.00 | 49 | 1012.0 |
| 20260904001027 | 88 | 229 | 9.0 | 10.0 | 0.00 | 0.00 | 0.00 | 49 | 1012.0 |
| 20260904000527 | 88 | 195 | 7.0 | 7.0 | 0.00 | 0.00 | 0.00 | 51 | 1012.0 |
| 20260904000023 | 88 | 250 | 9.0 | 10.0 | 0.00 | 0.00 | 0.00 | 51 | 1012.2 |
| 20260903235518 | 87 | 249 | 9.0 | 11.0 | 0.00 | 0.00 | 0.00 | 52 | 1012.2 |
| 20260903235014 | 87 | 209 | 11.0 | 14.0 | 0.00 | 0.00 | 0.00 | 53 | 1012.3 |
| 20260903234509 | 87 | 228 | 7.0 | 7.0 | 0.00 | 0.00 | 0.00 | 54 | 1012.3 |
| 20260903234004 | 87 | 264 | 9.0 | 9.0 | 0.00 | 0.00 | 0.00 | 54 | 1012.1 |
| 20260903233501 | 87 | 228 | 12.0 | 15.0 | 0.00 | 0.00 | 0.00 | 54 | 1012.2 |
| 20260903232955 | 88 | 245 | 10.0 | 14.0 | 0.00 | 0.00 | 0.00 | 53 | 1012.1 |
| 20260903232450 | 89 | 188 | 5.0 | 8.0 | 0.00 | 0.00 | 0.00 | 48 | 1012.0 |
| 20260903231944 | 89 | 245 | 8.0 | 9.0 | 0.00 | 0.00 | 0.00 | 46 | 1012.0 |
| 20260903231440 | 89 | 252 | 4.0 | 5.0 | 0.00 | 0.00 | 0.00 | 46 | 1012.0 |
| 20260903230934 | 89 | 176 | 4.0 | 6.0 | 0.00 | 0.00 | 0.00 | 47 | 1012.0 |
| 20260903230430 | 89 | 227 | 6.0 | 8.0 | 0.00 | 0.00 | 0.00 | 46 | 1012.0 |
| 20260903225926 | 89 | 272 | 3.0 | 3.0 | 0.00 | 0.00 | 0.00 | 46 | 1012.1 |
| 20260903225421 | 89 | 248 | 8.0 | 9.0 | 0.00 | 0.00 | 0.00 | 47 | 1011.9 |
| 20260903224918 | 89 | 290 | 4.0 | 5.0 | 0.00 | 0.00 | 0.00 | 47 | 1012.2 |
| 20260903224414 | 89 | 268 | 7.0 | 8.0 | 0.00 | 0.00 | 0.00 | 47 | 1012.0 |
| 20260903223910 | 89 | 264 | 3.0 | 3.0 | 0.00 | 0.00 | 0.00 | 47 | 1012.1 |
| 20260903223408 | 89 | 218 | 0.0 | 1.0 | 0.00 | 0.00 | 0.00 | 46 | 1011.9 |
| 20260903222908 | 89 | 296 | 6.0 | 7.0 | 0.00 | 0.00 | 0.00 | 46 | 1011.9 |
| 20260903222403 | 90 | 239 | 2.0 | 2.0 | 0.00 | 0.00 | 0.00 | 46 | 1012.0 |
| 20260903221857 | 90 | 231 | 4.0 | 5.0 | 0.00 | 0.00 | 0.00 | 45 | 1012.0 |
| 20260903221356 | 89 | 244 | 7.0 | 9.0 | 0.00 | 0.00 | 0.00 | 45 | 1012.2 |
| 20260903220854 | 90 | 226 | 3.0 | 3.0 | 0.00 | 0.00 | 0.00 | 45 | 1012.1 |
| 20260903220349 | 90 | 243 | 2.0 | 2.0 | 0.00 | 0.00 | 0.00 | 45 | 1012.3 |
| 20260903215847 | 90 | 230 | 5.0 | 6.0 | 0.00 | 0.00 | 0.00 | 47 | 1012.2 |
| 20260903215344 | 90 | 265 | 6.0 | 7.0 | 0.00 | 0.00 | 0.00 | 46 | 1012.4 |
| 20260903214842 | 90 | 280 | 4.0 | 6.0 | 0.00 | 0.00 | 0.00 | 46 | 1012.4 |
| 20260903214338 | 90 | 280 | 4.0 | 5.0 | 0.00 | 0.00 | 0.00 | 47 | 1012.5 |
| 20260903213837 | 90 | 195 | 6.0 | 7.0 | 0.00 | 0.00 | 0.00 | 45 | 1012.7 |
| 20260903213332 | 91 | 202 | 7.0 | 8.0 | 0.00 | 0.00 | 0.00 | 44 | 1012.7 |
| 20260903212829 | 90 | 13 | 3.0 | 3.0 | 0.00 | 0.00 | 0.00 | 46 | 1012.3 |
| 20260903212325 | 93 | 243 | 3.0 | 3.0 | 0.00 | 0.00 | 0.00 | 44 | 1012.8 |
| 20260903211824 | 92 | 194 | 1.0 | 1.0 | 0.00 | 0.00 | 0.00 | 44 | 1012.9 |
| 20260903211320 | 91 | 245 | 3.0 | 3.0 | 0.00 | 0.00 | 0.00 | 46 | 1012.9 |
| 20260903210816 | 90 | 217 | 1.0 | 1.0 | 0.00 | 0.00 | 0.00 | 45 | 1012.9 |
| 20260903210311 | 91 | 186 | 5.0 | 6.0 | 0.00 | 0.00 | 0.00 | 45 | 1013.1 |
| 20260903205810 | 91 | 249 | 3.0 | 3.0 | 0.00 | 0.00 | 0.00 | 45 | 1013.0 |
| 20260903205310 | 90 | 324 | 1.0 | 1.0 | 0.00 | 0.00 | 0.00 | 45 | 1013.2 |
| 20260903204805 | 91 | 205 | 5.0 | 7.0 | 0.00 | 0.00 | 0.00 | 47 | 1013.4 |
| 20260903204302 | 90 | 180 | 2.0 | 3.0 | 0.00 | 0.00 | 0.00 | 45 | 1013.2 |
| 20260903203757 | 90 | 208 | 1.0 | 2.0 | 0.00 | 0.00 | 0.00 | 46 | 1013.4 |
| 20260903203253 | 90 | 211 | 2.0 | 2.0 | 0.00 | 0.00 | 0.00 | 45 | 1013.4 |
| 20260903202751 | 89 | 169 | 5.0 | 6.0 | 0.00 | 0.00 | 0.00 | 46 | 1013.7 |
| 20260903202248 | 89 | 208 | 5.0 | 6.0 | 0.00 | 0.00 | 0.00 | 46 | 1013.3 |
| 20260903201747 | 89 | 257 | 3.0 | 3.0 | 0.00 | 0.00 | 0.00 | 49 | 1013.6 |
| 20260903201243 | 89 | 217 | 2.0 | 2.0 | 0.00 | 0.00 | 0.00 | 48 | 1013.8 |
| 20260903200741 | 88 | 257 | 1.0 | 1.0 | 0.00 | 0.00 | 0.00 | 51 | 1014.0 |
| 20260903200237 | 88 | 260 | 3.0 | 3.0 | 0.00 | 0.00 | 0.00 | 49 | 1014.0 |
| 20260903195732 | 88 | 285 | 5.0 | 5.0 | 0.00 | 0.00 | 0.00 | 48 | 1014.2 |
| 20260903195228 | 88 | 196 | 0.0 | 0.0 | 0.00 | 0.00 | 0.00 | 49 | 1014.2 |
| 20260903194728 | 87 | 238 | 2.0 | 2.0 | 0.00 | 0.00 | 0.00 | 53 | 1014.2 |
| 20260903194224 | 87 | 291 | 3.0 | 3.0 | 0.00 | 0.00 | 0.00 | 50 | 1014.2 |
| 20260903193719 | 88 | 225 | 6.0 | 6.0 | 0.00 | 0.00 | 0.00 | 52 | 1014.4 |
| 20260903193214 | 87 | 278 | 3.0 | 5.0 | 0.00 | 0.00 | 0.00 | 53 | 1014.6 |
| 20260903192710 | 88 | 247 | 6.0 | 7.0 | 0.00 | 0.00 | 0.00 | 50 | 1014.5 |
| 20260903192206 | 87 | 230 | 2.0 | 2.0 | 0.00 | 0.00 | 0.00 | 51 | 1014.6 |
| 20260903191701 | 87 | 228 | 3.0 | 5.0 | 0.00 | 0.00 | 0.00 | 53 | 1014.5 |
| 20260903191156 | 86 | 198 | 4.0 | 5.0 | 0.00 | 0.00 | 0.00 | 53 | 1014.6 |
| 20260903190651 | 86 | 232 | 6.0 | 6.0 | 0.00 | 0.00 | 0.00 | 53 | 1014.8 |
| 20260903190151 | 86 | 262 | 7.0 | 8.0 | 0.00 | 0.00 | 0.00 | 52 | 1014.9 |
| 20260903185646 | 86 | 198 | 7.0 | 8.0 | 0.00 | 0.00 | 0.00 | 52 | 1015.1 |
| 20260903185141 | 86 | 223 | 4.0 | 5.0 | 0.00 | 0.00 | 0.00 | 52 | 1015.1 |
| 20260903184638 | 86 | 287 | 6.0 | 8.0 | 0.00 | 0.00 | 0.00 | 53 | 1015.3 |
| 20260903184133 | 86 | 230 | 4.0 | 5.0 | 0.00 | 0.00 | 0.00 | 54 | 1015.1 |
| 20260903183631 | 85 | 242 | 6.0 | 7.0 | 0.00 | 0.00 | 0.00 | 54 | 1015.4 |
| 20260903183127 | 85 | 274 | 5.0 | 6.0 | 0.00 | 0.00 | 0.00 | 54 | 1015.3 |
| 20260903182626 | 85 | 233 | 5.0 | 6.0 | 0.00 | 0.00 | 0.00 | 54 | 1015.6 |
| 20260903182122 | 84 | 210 | 7.0 | 8.0 | 0.00 | 0.00 | 0.00 | 55 | 1015.5 |
| 20260903181620 | 84 | 211 | 2.0 | 2.0 | 0.00 | 0.00 | 0.00 | 54 | 1015.7 |
| 20260903181115 | 84 | 221 | 5.0 | 6.0 | 0.00 | 0.00 | 0.00 | 54 | 1015.9 |
| 20260903180610 | 84 | 209 | 5.0 | 6.0 | 0.00 | 0.00 | 0.00 | 53 | 1015.9 |
| 20260903180105 | 84 | 230 | 6.0 | 6.0 | 0.00 | 0.00 | 0.00 | 54 | 1015.9 |
| 20260903175604 | 84 | 209 | 3.0 | 3.0 | 0.00 | 0.00 | 0.00 | 56 | 1016.0 |
| 20260903175103 | 84 | 230 | 3.0 | 3.0 | 0.00 | 0.00 | 0.00 | 56 | 1016.0 |
| 20260903174558 | 84 | 203 | 4.0 | 6.0 | 0.00 | 0.00 | 0.00 | 57 | 1016.1 |
| 20260903174053 | 84 | 234 | 5.0 | 6.0 | 0.00 | 0.00 | 0.00 | 57 | 1015.8 |
| 20260903173548 | 84 | 232 | 2.0 | 2.0 | 0.00 | 0.00 | 0.00 | 57 | 1015.9 |
| 20260903173044 | 84 | 219 | 6.0 | 7.0 | 0.00 | 0.00 | 0.00 | 56 | 1016.2 |
| 20260903172538 | 84 | 194 | 5.0 | 6.0 | 0.00 | 0.00 | 0.00 | 56 | 1016.1 |
| 20260903172034 | 85 | 196 | 4.0 | 5.0 | 0.00 | 0.00 | 0.00 | 55 | 1016.2 |
| 20260903171529 | 85 | 254 | 2.0 | 2.0 | 0.00 | 0.00 | 0.00 | 55 | 1016.0 |
| 20260903171025 | 84 | 129 | 0.0 | 1.0 | 0.00 | 0.00 | 0.00 | 55 | 1016.1 |
| 20260903170523 | 84 | 229 | 1.0 | 2.0 | 0.00 | 0.00 | 0.00 | 56 | 1016.2 |
| 20260903170020 | 83 | 179 | 2.0 | 3.0 | 0.00 | 0.00 | 0.00 | 58 | 1016.2 |
| 20260903165517 | 83 | 177 | 2.0 | 3.0 | 0.00 | 0.00 | 0.00 | 59 | 1016.3 |
| 20260903165013 | 83 | 221 | 3.0 | 3.0 | 0.00 | 0.00 | 0.00 | 59 | 1016.2 |
| 20260903164513 | 84 | 135 | 2.0 | 3.0 | 0.00 | 0.00 | 0.00 | 58 | 1016.1 |
| 20260903164008 | 83 | 189 | 1.0 | 1.0 | 0.00 | 0.00 | 0.00 | 60 | 1016.1 |
| 20260903163503 | 83 | 189 | 2.0 | 2.0 | 0.00 | 0.00 | 0.00 | 60 | 1016.2 |
| 20260903162959 | 82 | 169 | 3.0 | 3.0 | 0.00 | 0.00 | 0.00 | 61 | 1016.0 |
| 20260903162455 | 82 | 222 | 2.0 | 2.0 | 0.00 | 0.00 | 0.00 | 61 | 1016.1 |
| 20260903161950 | 82 | 179 | 0.0 | 0.0 | 0.00 | 0.00 | 0.00 | 61 | 1016.2 |
| 20260903161446 | 82 | 180 | 1.0 | 1.0 | 0.00 | 0.00 | 0.00 | 62 | 1016.1 |
| 20260903160942 | 81 | 201 | 1.0 | 2.0 | 0.00 | 0.00 | 0.00 | 62 | 1016.2 |
| 20260903160440 | 81 | 224 | 4.0 | 5.0 | 0.00 | 0.00 | 0.00 | 64 | 1016.3 |
| 20260903155939 | 81 | 208 | 4.0 | 5.0 | 0.00 | 0.00 | 0.00 | 64 | 1016.1 |
| 20260903155439 | 81 | 211 | 1.0 | 1.0 | 0.00 | 0.00 | 0.00 | 64 | 1016.2 |
| 20260903154936 | 80 | 221 | 3.0 | 3.0 | 0.00 | 0.00 | 0.00 | 64 | 1016.3 |